Time,TemperatureF,DewpointF,PressureIn,WindDirection,WindDirectionDegrees,WindSpeedMPH,WindSpeedGustMPH,Humidity,HourlyPrecipIn,Conditions,Clouds,dailyrainin,SoftwareType,DateUTC
2013-06-02 00:01:00,72.7,65.1,30.03,North,360,5.0,10.0,77,0.00,,---,0.00,VWS V14.01,2013-06-02 04:01:00,
2013-06-02 00:04:00,72.8,65.2,30.03,North,360,4.0,9.0,77,0.00,,---,0.00,VWS V14.01,2013-06-02 04:04:00,
2013-06-02 00:09:00,72.9,65.3,30.03,North,360,7.0,10.0,77,0.00,,---,0.00,VWS V14.01,2013-06-02 04:09:00,
2013-06-02 00:14:00,73.2,65.2,30.03,North,360,5.0,13.0,76,0.00,,---,0.00,VWS V14.01,2013-06-02 04:14:00,
2013-06-02 00:19:00,73.4,65.4,30.03,North,360,6.0,16.0,76,0.00,,---,0.00,VWS V14.01,2013-06-02 04:19:00,
2013-06-02 00:24:00,73.4,65.4,30.03,North,360,10.0,16.0,76,0.00,,---,0.00,VWS V14.01,2013-06-02 04:24:00,
2013-06-02 00:29:00,73.4,65.4,30.03,North,360,7.0,16.0,76,0.00,,---,0.00,VWS V14.01,2013-06-02 04:29:00,
2013-06-02 00:34:00,73.5,65.5,30.02,North,360,15.0,16.0,76,0.00,,---,0.00,VWS V14.01,2013-06-02 04:34:00,
2013-06-02 00:39:00,73.5,65.5,30.02,North,360,17.0,20.0,76,0.00,,---,0.00,VWS V14.01,2013-06-02 04:39:00,
2013-06-02 00:44:00,73.5,65.5,30.02,North,360,15.0,20.0,76,0.00,,---,0.00,VWS V14.01,2013-06-02 04:44:00,
2013-06-02 00:49:00,73.4,65.8,30.02,North,360,9.0,20.0,77,0.00,,---,0.00,VWS V14.01,2013-06-02 04:49:00,
2013-06-02 00:54:00,73.2,65.6,30.02,North,360,10.0,20.0,77,0.00,,---,0.00,VWS V14.01,2013-06-02 04:54:00,
2013-06-02 00:59:00,72.9,65.7,30.01,North,360,9.0,20.0,78,0.00,,---,0.00,VWS V14.01,2013-06-02 04:59:00,
2013-06-02 01:04:00,72.7,65.4,30.02,North,360,11.0,13.0,78,0.00,,---,0.00,VWS V14.01,2013-06-02 05:04:00,
2013-06-02 01:09:00,72.6,65.3,30.02,North,360,7.0,16.0,78,0.00,,---,0.00,VWS V14.01,2013-06-02 05:09:00,
2013-06-02 01:14:00,72.6,65.7,30.01,North,360,16.0,22.0,79,0.00,,---,0.00,VWS V14.01,2013-06-02 05:14:00,
2013-06-02 01:20:00,72.4,65.5,30.01,North,360,11.0,22.0,79,0.00,,---,0.00,VWS V14.01,2013-06-02 05:20:00,
2013-06-02 01:25:00,72.4,65.5,30.01,North,360,6.0,22.0,79,0.00,,---,0.00,VWS V14.01,2013-06-02 05:25:00,
2013-06-02 01:30:00,72.3,65.4,30.01,North,360,12.0,22.0,79,0.00,,---,0.00,VWS V14.01,2013-06-02 05:30:00,
2013-06-02 01:35:00,72.2,65.7,30.02,North,360,7.0,22.0,80,0.00,,---,0.00,VWS V14.01,2013-06-02 05:35:00,
2013-06-02 01:40:00,72.1,65.6,30.01,North,360,5.0,22.0,80,0.00,,---,0.00,VWS V14.01,2013-06-02 05:40:00,
2013-06-02 01:45:00,72.0,65.5,30.01,North,360,3.0,22.0,80,0.00,,---,0.00,VWS V14.01,2013-06-02 05:45:00,
2013-06-02 01:50:00,71.8,65.7,30.01,North,360,9.0,22.0,81,0.00,,---,0.00,VWS V14.01,2013-06-02 05:50:00,
2013-06-02 01:55:00,71.7,65.6,30.01,North,360,6.0,22.0,81,0.00,,---,0.00,VWS V14.01,2013-06-02 05:55:00,
2013-06-02 02:00:00,71.6,65.5,30.00,North,360,12.0,22.0,81,0.00,,---,0.00,VWS V14.01,2013-06-02 06:00:00,
2013-06-02 02:05:00,71.6,65.8,30.00,North,360,12.0,13.0,82,0.00,,---,0.00,VWS V14.01,2013-06-02 06:05:00,
2013-06-02 02:10:00,71.5,65.7,30.00,North,360,10.0,14.0,82,0.00,,---,0.00,VWS V14.01,2013-06-02 06:10:00,
2013-06-02 02:15:00,71.4,65.6,29.99,North,360,12.0,16.0,82,0.00,,---,0.00,VWS V14.01,2013-06-02 06:15:00,
2013-06-02 02:20:00,71.3,65.5,29.99,North,360,13.0,16.0,82,0.00,,---,0.00,VWS V14.01,2013-06-02 06:20:00,
2013-06-02 02:25:00,71.2,65.4,29.99,North,360,10.0,16.0,82,0.00,,---,0.00,VWS V14.01,2013-06-02 06:25:00,
2013-06-02 02:30:00,71.1,65.7,29.99,North,360,9.0,16.0,83,0.00,,---,0.00,VWS V14.01,2013-06-02 06:30:00,
2013-06-02 02:35:00,71.0,65.6,29.98,North,360,5.0,16.0,83,0.00,,---,0.00,VWS V14.01,2013-06-02 06:35:00,
2013-06-02 02:40:00,70.9,65.5,29.98,North,360,7.0,16.0,83,0.00,,---,0.00,VWS V14.01,2013-06-02 06:40:00,
2013-06-02 02:45:00,70.9,65.5,29.98,North,360,12.0,16.0,83,0.00,,---,0.00,VWS V14.01,2013-06-02 06:45:00,
2013-06-02 02:50:00,70.8,65.7,29.97,North,360,6.0,16.0,84,0.00,,---,0.00,VWS V14.01,2013-06-02 06:50:00,
2013-06-02 02:55:00,70.7,65.6,29.97,North,360,13.0,16.0,84,0.00,,---,0.00,VWS V14.01,2013-06-02 06:55:00,
2013-06-02 03:01:00,70.6,65.5,29.97,North,360,6.0,16.0,84,0.00,,---,0.00,VWS V14.01,2013-06-02 07:01:00,
2013-06-02 03:06:00,70.5,65.4,29.97,North,360,10.0,11.0,84,0.00,,---,0.00,VWS V14.01,2013-06-02 07:06:00,
2013-06-02 03:11:00,70.5,65.4,29.97,North,360,6.0,13.0,84,0.00,,---,0.00,VWS V14.01,2013-06-02 07:11:00,
2013-06-02 03:16:00,70.5,65.4,29.97,North,360,6.0,16.0,84,0.00,,---,0.00,VWS V14.01,2013-06-02 07:16:00,
2013-06-02 03:22:00,70.4,65.3,29.97,North,360,14.0,17.0,84,0.00,,---,0.00,VWS V14.01,2013-06-02 07:22:00,
2013-06-02 03:27:00,70.4,65.3,29.96,North,360,7.0,17.0,84,0.00,,---,0.00,VWS V14.01,2013-06-02 07:27:00,
2013-06-02 03:32:00,70.3,65.2,29.95,North,360,10.0,17.0,84,0.00,,---,0.00,VWS V14.01,2013-06-02 07:32:00,
2013-06-02 03:37:00,70.3,65.2,29.95,North,360,7.0,17.0,84,0.00,,---,0.00,VWS V14.01,2013-06-02 07:37:00,
2013-06-02 03:42:00,70.2,65.5,29.95,North,360,10.0,17.0,85,0.00,,---,0.00,VWS V14.01,2013-06-02 07:42:00,
2013-06-02 03:47:00,70.2,65.5,29.95,North,360,7.0,17.0,85,0.00,,---,0.00,VWS V14.01,2013-06-02 07:47:00,
2013-06-02 03:52:00,70.2,65.5,29.95,North,360,9.0,17.0,85,0.00,,---,0.00,VWS V14.01,2013-06-02 07:52:00,
2013-06-02 03:57:00,70.1,65.4,29.95,North,360,9.0,17.0,85,0.00,,---,0.00,VWS V14.01,2013-06-02 07:57:00,
2013-06-02 04:02:00,70.2,65.5,29.95,North,360,8.0,17.0,85,0.00,,---,0.00,VWS V14.01,2013-06-02 08:02:00,
2013-06-02 04:07:00,70.1,65.4,29.95,North,360,13.0,18.0,85,0.00,,---,0.00,VWS V14.01,2013-06-02 08:07:00,
2013-06-02 04:12:00,70.1,65.4,29.96,North,360,6.0,18.0,85,0.00,,---,0.00,VWS V14.01,2013-06-02 08:12:00,
2013-06-02 04:17:00,70.0,65.3,29.97,North,360,11.0,18.0,85,0.00,,---,0.00,VWS V14.01,2013-06-02 08:17:00,
2013-06-02 04:22:00,69.9,65.2,29.97,North,360,10.0,18.0,85,0.00,,---,0.00,VWS V14.01,2013-06-02 08:22:00,
2013-06-02 04:28:00,69.8,65.1,29.97,North,360,3.0,18.0,85,0.00,,---,0.00,VWS V14.01,2013-06-02 08:28:00,
2013-06-02 04:33:00,69.8,65.1,29.98,North,360,5.0,18.0,85,0.00,,---,0.00,VWS V14.01,2013-06-02 08:33:00,
2013-06-02 04:38:00,69.6,64.9,29.97,North,360,10.0,18.0,85,0.00,,---,0.00,VWS V14.01,2013-06-02 08:38:00,
2013-06-02 04:43:00,69.6,65.2,29.98,North,360,6.0,18.0,86,0.00,,---,0.00,VWS V14.01,2013-06-02 08:43:00,
2013-06-02 04:48:00,69.5,65.1,29.98,North,360,6.0,18.0,86,0.00,,---,0.00,VWS V14.01,2013-06-02 08:48:00,
2013-06-02 04:53:00,69.4,65.0,29.98,North,360,6.0,18.0,86,0.00,,---,0.00,VWS V14.01,2013-06-02 08:53:00,
2013-06-02 04:58:00,69.4,65.0,29.97,North,360,4.0,18.0,86,0.00,,---,0.00,VWS V14.01,2013-06-02 08:58:00,
2013-06-02 05:03:00,69.3,64.9,29.98,North,360,7.0,7.0,86,0.00,,---,0.00,VWS V14.01,2013-06-02 09:03:00,
2013-06-02 05:08:00,69.2,64.8,29.98,North,360,4.0,11.0,86,0.00,,---,0.00,VWS V14.01,2013-06-02 09:08:00,
2013-06-02 05:13:00,69.1,64.7,29.97,North,360,4.0,11.0,86,0.00,,---,0.00,VWS V14.01,2013-06-02 09:13:00,
2013-06-02 05:18:00,69.1,64.7,29.97,North,360,4.0,11.0,86,0.00,,---,0.00,VWS V14.01,2013-06-02 09:18:00,
2013-06-02 05:23:00,69.0,65.0,29.97,North,360,5.0,11.0,87,0.00,,---,0.00,VWS V14.01,2013-06-02 09:23:00,
2013-06-02 05:28:00,68.9,64.9,29.97,North,360,9.0,11.0,87,0.00,,---,0.00,VWS V14.01,2013-06-02 09:28:00,
2013-06-02 05:33:00,68.9,64.9,29.97,North,360,6.0,11.0,87,0.00,,---,0.00,VWS V14.01,2013-06-02 09:33:00,
2013-06-02 05:39:00,68.8,64.8,29.97,North,360,6.0,11.0,87,0.00,,---,0.00,VWS V14.01,2013-06-02 09:39:00,
2013-06-02 05:44:00,68.8,64.8,29.97,North,360,4.0,11.0,87,0.00,,---,0.00,VWS V14.01,2013-06-02 09:44:00,
2013-06-02 05:49:00,68.7,64.7,29.97,North,360,3.0,11.0,87,0.00,,---,0.00,VWS V14.01,2013-06-02 09:49:00,
2013-06-02 05:54:00,68.6,64.6,29.98,North,360,4.0,11.0,87,0.00,,---,0.00,VWS V14.01,2013-06-02 09:54:00,
2013-06-02 05:59:00,68.6,64.9,29.98,North,360,3.0,11.0,88,0.00,,---,0.00,VWS V14.01,2013-06-02 09:59:00,
2013-06-02 06:04:00,68.5,64.8,29.98,North,360,5.0,5.0,88,0.00,,---,0.00,VWS V14.01,2013-06-02 10:04:00,
2013-06-02 06:09:00,68.4,64.7,29.98,North,360,3.0,9.0,88,0.00,,---,0.00,VWS V14.01,2013-06-02 10:09:00,
2013-06-02 06:14:00,68.5,64.8,29.98,North,360,6.0,9.0,88,0.00,,---,0.00,VWS V14.01,2013-06-02 10:14:00,
2013-06-02 06:19:00,68.4,64.7,29.98,North,360,4.0,9.0,88,0.00,,---,0.00,VWS V14.01,2013-06-02 10:19:00,
2013-06-02 06:24:00,68.4,64.7,29.98,North,360,6.0,9.0,88,0.00,,---,0.00,VWS V14.01,2013-06-02 10:24:00,
2013-06-02 06:29:00,68.4,64.7,29.97,North,360,5.0,9.0,88,0.00,,---,0.00,VWS V14.01,2013-06-02 10:29:00,
2013-06-02 06:34:00,68.4,64.7,29.98,North,360,4.0,9.0,88,0.00,,---,0.00,VWS V14.01,2013-06-02 10:34:00,
2013-06-02 06:40:00,68.3,64.9,29.98,North,360,4.0,9.0,89,0.00,,---,0.00,VWS V14.01,2013-06-02 10:40:00,
2013-06-02 06:45:00,68.3,64.9,29.98,North,360,3.0,9.0,89,0.00,,---,0.00,VWS V14.01,2013-06-02 10:45:00,
2013-06-02 06:50:00,68.4,65.0,29.98,North,360,4.0,9.0,89,0.00,,---,0.00,VWS V14.01,2013-06-02 10:50:00,
2013-06-02 06:55:00,68.5,64.8,29.99,North,360,4.0,9.0,88,0.00,,---,0.00,VWS V14.01,2013-06-02 10:55:00,
2013-06-02 07:00:00,68.6,64.9,29.99,North,360,9.0,10.0,88,0.00,,---,0.00,VWS V14.01,2013-06-02 11:00:00,
2013-06-02 07:05:00,68.6,64.9,29.99,North,360,6.0,10.0,88,0.00,,---,0.00,VWS V14.01,2013-06-02 11:05:00,
2013-06-02 07:10:00,68.7,65.0,29.99,North,360,5.0,11.0,88,0.00,,---,0.00,VWS V14.01,2013-06-02 11:10:00,
2013-06-02 07:15:00,68.9,65.2,29.98,North,360,7.0,11.0,88,0.00,,---,0.00,VWS V14.01,2013-06-02 11:15:00,
2013-06-02 07:20:00,69.1,65.4,29.99,North,360,12.0,14.0,88,0.00,,---,0.00,VWS V14.01,2013-06-02 11:20:00,
2013-06-02 07:25:00,69.4,65.7,29.99,North,360,10.0,14.0,88,0.00,,---,0.00,VWS V14.01,2013-06-02 11:25:00,
2013-06-02 07:30:00,69.9,65.9,29.99,North,360,5.0,14.0,87,0.00,,---,0.00,VWS V14.01,2013-06-02 11:30:00,
2013-06-02 07:35:00,70.2,65.8,29.99,North,360,13.0,14.0,86,0.00,,---,0.00,VWS V14.01,2013-06-02 11:35:00,
2013-06-02 07:40:00,70.4,66.0,29.99,North,360,5.0,14.0,86,0.00,,---,0.00,VWS V14.01,2013-06-02 11:40:00,
2013-06-02 07:46:00,70.5,65.8,29.99,North,360,8.0,14.0,85,0.00,,---,0.00,VWS V14.01,2013-06-02 11:46:00,
2013-06-02 07:51:00,70.6,65.9,29.99,North,360,7.0,19.0,85,0.00,,---,0.00,VWS V14.01,2013-06-02 11:51:00,
2013-06-02 07:56:00,70.9,65.8,29.99,North,360,7.0,19.0,84,0.00,,---,0.00,VWS V14.01,2013-06-02 11:56:00,
2013-06-02 08:01:00,71.2,66.1,29.99,North,360,4.0,19.0,84,0.00,,---,0.00,VWS V14.01,2013-06-02 12:01:00,
2013-06-02 08:06:00,71.3,65.9,29.99,North,360,13.0,19.0,83,0.00,,---,0.00,VWS V14.01,2013-06-02 12:06:00,
2013-06-02 08:11:00,71.3,65.9,29.99,North,360,5.0,20.0,83,0.00,,---,0.00,VWS V14.01,2013-06-02 12:11:00,
2013-06-02 08:16:00,71.4,66.0,29.99,North,360,9.0,20.0,83,0.00,,---,0.00,VWS V14.01,2013-06-02 12:16:00,
2013-06-02 08:21:00,71.6,66.2,29.99,North,360,10.0,20.0,83,0.00,,---,0.00,VWS V14.01,2013-06-02 12:21:00,
2013-06-02 08:26:00,71.3,65.9,29.99,North,360,9.0,20.0,83,0.00,,---,0.00,VWS V14.01,2013-06-02 12:26:00,
2013-06-02 08:31:00,71.1,66.0,29.99,North,360,3.0,20.0,84,0.00,,---,0.00,VWS V14.01,2013-06-02 12:31:00,
2013-06-02 08:37:00,71.2,66.1,29.98,North,360,6.0,20.0,84,0.00,,---,0.00,VWS V14.01,2013-06-02 12:37:00,
2013-06-02 08:42:00,71.6,66.5,29.98,North,360,13.0,20.0,84,0.00,,---,0.00,VWS V14.01,2013-06-02 12:42:00,
2013-06-02 08:47:00,71.9,66.5,29.98,North,360,7.0,20.0,83,0.00,,---,0.00,VWS V14.01,2013-06-02 12:47:00,
2013-06-02 08:52:00,72.0,66.6,29.99,North,360,11.0,20.0,83,0.00,,---,0.00,VWS V14.01,2013-06-02 12:52:00,
2013-06-02 08:57:00,71.9,66.5,29.99,North,360,9.0,20.0,83,0.00,,---,0.00,VWS V14.01,2013-06-02 12:57:00,
2013-06-02 09:02:00,71.8,66.4,29.98,North,360,6.0,20.0,83,0.00,,---,0.00,VWS V14.01,2013-06-02 13:02:00,
2013-06-02 09:07:00,71.8,66.4,29.98,North,360,10.0,15.0,83,0.00,,---,0.00,VWS V14.01,2013-06-02 13:07:00,
2013-06-02 09:12:00,71.7,66.6,29.98,North,360,7.0,21.0,84,0.00,,---,0.00,VWS V14.01,2013-06-02 13:12:00,
2013-06-02 09:17:00,71.9,66.5,29.98,North,360,16.0,21.0,83,0.00,,---,0.00,VWS V14.01,2013-06-02 13:17:00,
2013-06-02 09:22:00,72.0,66.6,29.98,North,360,10.0,21.0,83,0.00,,---,0.00,VWS V14.01,2013-06-02 13:22:00,
2013-06-02 09:27:00,72.3,66.8,29.98,North,360,10.0,21.0,83,0.00,,---,0.00,VWS V14.01,2013-06-02 13:27:00,
2013-06-02 09:32:00,72.6,66.8,29.98,North,360,7.0,21.0,82,0.00,,---,0.00,VWS V14.01,2013-06-02 13:32:00,
2013-06-02 09:37:00,72.6,67.2,29.97,North,360,7.0,21.0,83,0.00,,---,0.00,VWS V14.01,2013-06-02 13:37:00,
2013-06-02 09:42:00,73.2,67.4,29.97,North,360,19.0,21.0,82,0.00,,---,0.00,VWS V14.01,2013-06-02 13:42:00,
2013-06-02 09:47:00,73.7,67.5,29.97,North,360,8.0,21.0,81,0.00,,---,0.00,VWS V14.01,2013-06-02 13:47:00,
2013-06-02 09:53:00,73.9,67.3,29.97,North,360,7.0,21.0,80,0.00,,---,0.00,VWS V14.01,2013-06-02 13:53:00,
2013-06-02 09:58:00,73.8,67.2,29.97,North,360,9.0,21.0,80,0.00,,---,0.00,VWS V14.01,2013-06-02 13:58:00,
2013-06-02 10:03:00,73.9,67.3,29.97,North,360,12.0,16.0,80,0.00,,---,0.00,VWS V14.01,2013-06-02 14:03:00,
2013-06-02 10:08:00,74.2,67.3,29.97,North,360,13.0,22.0,79,0.00,,---,0.00,VWS V14.01,2013-06-02 14:08:00,
2013-06-02 10:13:00,74.6,67.7,29.97,North,360,5.0,22.0,79,0.00,,---,0.00,VWS V14.01,2013-06-02 14:13:00,
2013-06-02 10:18:00,74.6,67.3,29.97,North,360,5.0,22.0,78,0.00,,---,0.00,VWS V14.01,2013-06-02 14:18:00,
2013-06-02 10:23:00,74.8,67.5,29.98,North,360,7.0,22.0,78,0.00,,---,0.00,VWS V14.01,2013-06-02 14:23:00,
2013-06-02 10:28:00,75.1,67.0,29.98,North,360,16.0,22.0,76,0.00,,---,0.00,VWS V14.01,2013-06-02 14:28:00,
2013-06-02 10:33:00,74.6,67.3,29.98,North,360,12.0,22.0,78,0.00,,---,0.00,VWS V14.01,2013-06-02 14:33:00,
2013-06-02 10:38:00,74.5,67.2,29.98,North,360,9.0,22.0,78,0.00,,---,0.00,VWS V14.01,2013-06-02 14:38:00,
2013-06-02 10:43:00,74.9,67.6,29.98,North,360,9.0,22.0,78,0.00,,---,0.00,VWS V14.01,2013-06-02 14:43:00,
2013-06-02 10:48:00,75.0,67.7,29.97,North,360,15.0,22.0,78,0.00,,---,0.00,VWS V14.01,2013-06-02 14:48:00,
2013-06-02 10:53:00,75.2,67.5,29.98,North,360,10.0,22.0,77,0.00,,---,0.00,VWS V14.01,2013-06-02 14:53:00,
2013-06-02 10:58:00,75.0,66.9,29.97,North,360,12.0,23.0,76,0.00,,---,0.00,VWS V14.01,2013-06-02 14:58:00,
2013-06-02 11:03:00,75.0,66.9,29.98,North,360,11.0,18.0,76,0.00,,---,0.00,VWS V14.01,2013-06-02 15:03:00,
2013-06-02 11:08:00,74.9,66.8,29.98,North,360,12.0,18.0,76,0.00,,---,0.00,VWS V14.01,2013-06-02 15:08:00,
2013-06-02 11:14:00,75.0,67.3,29.98,North,360,15.0,18.0,77,0.00,,---,0.00,VWS V14.01,2013-06-02 15:14:00,
2013-06-02 11:19:00,75.3,67.6,29.98,North,360,16.0,18.0,77,0.00,,---,0.00,VWS V14.01,2013-06-02 15:19:00,
2013-06-02 11:24:00,75.2,66.7,29.98,North,360,10.0,18.0,75,0.00,,---,0.00,VWS V14.01,2013-06-02 15:24:00,
2013-06-02 11:29:00,75.2,67.5,29.98,North,360,6.0,18.0,77,0.00,,---,0.00,VWS V14.01,2013-06-02 15:29:00,
2013-06-02 11:34:00,75.5,67.0,29.98,North,360,11.0,18.0,75,0.00,,---,0.00,VWS V14.01,2013-06-02 15:34:00,
2013-06-02 11:39:00,75.5,67.4,29.98,North,360,10.0,18.0,76,0.00,,---,0.00,VWS V14.01,2013-06-02 15:39:00,
2013-06-02 11:44:00,75.4,66.9,29.98,North,360,15.0,18.0,75,0.00,,---,0.00,VWS V14.01,2013-06-02 15:44:00,
2013-06-02 11:49:00,75.4,67.3,29.99,North,360,13.0,19.0,76,0.00,,---,0.00,VWS V14.01,2013-06-02 15:49:00,
2013-06-02 11:54:00,75.3,67.6,29.99,North,360,12.0,19.0,77,0.00,,---,0.00,VWS V14.01,2013-06-02 15:54:00,
2013-06-02 11:59:00,75.6,67.1,29.99,North,360,7.0,19.0,75,0.00,,---,0.00,VWS V14.01,2013-06-02 15:59:00,
2013-06-02 12:04:00,75.8,66.9,29.98,North,360,5.0,16.0,74,0.00,,---,0.00,VWS V14.01,2013-06-02 16:04:00,
2013-06-02 12:09:00,76.1,67.2,29.98,North,360,13.0,17.0,74,0.00,,---,0.00,VWS V14.01,2013-06-02 16:09:00,
2013-06-02 12:14:00,76.6,67.7,29.98,North,360,13.0,17.0,74,0.00,,---,0.00,VWS V14.01,2013-06-02 16:14:00,
2013-06-02 12:20:00,76.9,67.6,29.98,North,360,9.0,17.0,73,0.00,,---,0.00,VWS V14.01,2013-06-02 16:20:00,
2013-06-02 12:25:00,77.3,68.0,29.98,North,360,6.0,17.0,73,0.00,,---,0.00,VWS V14.01,2013-06-02 16:25:00,
2013-06-02 12:30:00,77.0,67.3,29.99,North,360,9.0,17.0,72,0.00,,---,0.00,VWS V14.01,2013-06-02 16:30:00,
2013-06-02 12:35:00,76.7,67.4,29.99,North,360,10.0,20.0,73,0.00,,---,0.00,VWS V14.01,2013-06-02 16:35:00,
2013-06-02 12:40:00,76.9,68.0,29.98,North,360,13.0,20.0,74,0.00,,---,0.00,VWS V14.01,2013-06-02 16:40:00,
2013-06-02 12:45:00,77.3,68.0,29.98,North,360,14.0,20.0,73,0.00,,---,0.00,VWS V14.01,2013-06-02 16:45:00,
2013-06-02 12:50:00,77.6,68.3,29.98,North,360,5.0,20.0,73,0.00,,---,0.00,VWS V14.01,2013-06-02 16:50:00,
2013-06-02 12:55:00,78.0,68.2,29.98,North,360,7.0,20.0,72,0.00,,---,0.00,VWS V14.01,2013-06-02 16:55:00,
2013-06-02 13:00:00,78.4,68.6,29.98,North,360,7.0,20.0,72,0.00,,---,0.00,VWS V14.01,2013-06-02 17:00:00,
2013-06-02 13:05:00,78.7,68.1,29.97,North,360,12.0,15.0,70,0.00,,---,0.00,VWS V14.01,2013-06-02 17:05:00,
2013-06-02 13:10:00,79.0,68.8,29.97,North,360,14.0,15.0,71,0.00,,---,0.00,VWS V14.01,2013-06-02 17:10:00,
2013-06-02 13:15:00,79.3,68.3,29.97,North,360,11.0,16.0,69,0.00,,---,0.00,VWS V14.01,2013-06-02 17:15:00,
2013-06-02 13:20:00,79.5,68.4,29.97,North,360,12.0,17.0,69,0.00,,---,0.00,VWS V14.01,2013-06-02 17:20:00,
2013-06-02 13:25:00,79.1,68.1,29.97,North,360,9.0,17.0,69,0.00,,---,0.00,VWS V14.01,2013-06-02 17:25:00,
2013-06-02 13:30:00,78.9,68.7,29.97,North,360,4.0,17.0,71,0.00,,---,0.00,VWS V14.01,2013-06-02 17:30:00,
2013-06-02 13:36:00,78.7,68.1,29.97,North,360,7.0,17.0,70,0.00,,---,0.00,VWS V14.01,2013-06-02 17:36:00,
2013-06-02 13:41:00,78.6,68.4,29.97,North,360,12.0,17.0,71,0.00,,---,0.00,VWS V14.01,2013-06-02 17:41:00,
2013-06-02 13:46:00,78.5,67.9,29.97,North,360,7.0,17.0,70,0.00,,---,0.00,VWS V14.01,2013-06-02 17:46:00,
2013-06-02 13:51:00,78.2,68.4,29.96,North,360,8.0,17.0,72,0.00,,---,0.00,VWS V14.01,2013-06-02 17:51:00,
2013-06-02 13:56:00,78.1,67.9,29.97,North,360,13.0,19.0,71,0.00,,---,0.00,VWS V14.01,2013-06-02 17:56:00,
2013-06-02 14:01:00,78.0,68.7,29.96,North,360,12.0,19.0,73,0.00,,---,0.00,VWS V14.01,2013-06-02 18:01:00,
2013-06-02 14:06:00,78.3,68.5,29.96,North,360,9.0,14.0,72,0.00,,---,0.00,VWS V14.01,2013-06-02 18:06:00,
2013-06-02 14:11:00,78.7,68.5,29.96,North,360,12.0,16.0,71,0.00,,---,0.00,VWS V14.01,2013-06-02 18:11:00,
2013-06-02 14:17:00,78.9,68.3,29.95,North,360,16.0,17.0,70,0.00,,---,0.00,VWS V14.01,2013-06-02 18:17:00,
2013-06-02 14:21:00,79.4,68.8,29.95,North,360,7.0,18.0,70,0.00,,---,0.00,VWS V14.01,2013-06-02 18:21:00,
2013-06-02 14:26:00,79.6,68.5,29.95,North,360,13.0,18.0,69,0.00,,---,0.00,VWS V14.01,2013-06-02 18:26:00,
2013-06-02 14:32:00,79.1,68.1,29.95,North,360,7.0,18.0,69,0.00,,---,0.00,VWS V14.01,2013-06-02 18:32:00,
2013-06-02 14:37:00,79.2,67.7,29.94,North,360,14.0,19.0,68,0.00,,---,0.00,VWS V14.01,2013-06-02 18:37:00,
2013-06-02 14:42:00,79.4,68.3,29.94,North,360,12.0,19.0,69,0.00,,---,0.00,VWS V14.01,2013-06-02 18:42:00,
2013-06-02 14:47:00,79.7,67.8,29.94,North,360,10.0,20.0,67,0.00,,---,0.00,VWS V14.01,2013-06-02 18:47:00,
2013-06-02 14:52:00,80.2,68.3,29.93,North,360,8.0,20.0,67,0.00,,---,0.00,VWS V14.01,2013-06-02 18:52:00,
2013-06-02 14:57:00,80.1,68.2,29.93,North,360,15.0,20.0,67,0.00,,---,0.00,VWS V14.01,2013-06-02 18:57:00,
2013-06-02 15:02:00,80.0,68.1,29.93,North,360,7.0,20.0,67,0.00,,---,0.00,VWS V14.01,2013-06-02 19:02:00,
2013-06-02 15:07:00,80.5,68.5,29.92,North,360,10.0,20.0,67,0.00,,---,0.00,VWS V14.01,2013-06-02 19:07:00,
2013-06-02 15:12:00,80.2,67.4,29.92,North,360,16.0,21.0,65,0.00,,---,0.00,VWS V14.01,2013-06-02 19:12:00,
2013-06-02 15:17:00,80.1,67.7,29.92,North,360,18.0,21.0,66,0.00,,---,0.00,VWS V14.01,2013-06-02 19:17:00,
2013-06-02 15:22:00,80.0,67.6,29.92,North,360,12.0,21.0,66,0.00,,---,0.00,VWS V14.01,2013-06-02 19:22:00,
2013-06-02 15:28:00,80.2,67.8,29.92,North,360,16.0,21.0,66,0.00,,---,0.00,VWS V14.01,2013-06-02 19:28:00,
2013-06-02 15:33:00,80.5,67.7,29.92,North,360,9.0,21.0,65,0.00,,---,0.00,VWS V14.01,2013-06-02 19:33:00,
2013-06-02 15:38:00,80.4,67.1,29.92,North,360,10.0,21.0,64,0.00,,---,0.00,VWS V14.01,2013-06-02 19:38:00,
2013-06-02 15:43:00,79.9,67.5,29.92,North,360,10.0,21.0,66,0.00,,---,0.00,VWS V14.01,2013-06-02 19:43:00,
2013-06-02 15:48:00,79.6,67.2,29.92,North,360,11.0,21.0,66,0.00,,---,0.00,VWS V14.01,2013-06-02 19:48:00,
2013-06-02 15:53:00,79.6,67.7,29.92,North,360,12.0,21.0,67,0.00,,---,0.00,VWS V14.01,2013-06-02 19:53:00,
2013-06-02 15:58:00,79.6,67.7,29.92,North,360,7.0,21.0,67,0.00,,---,0.00,VWS V14.01,2013-06-02 19:58:00,
2013-06-02 16:03:00,79.4,67.5,29.92,North,360,12.0,12.0,67,0.00,,---,0.00,VWS V14.01,2013-06-02 20:03:00,
2013-06-02 16:08:00,79.3,67.8,29.92,North,360,7.0,12.0,68,0.00,,---,0.00,VWS V14.01,2013-06-02 20:08:00,
2013-06-02 16:13:00,79.3,67.8,29.92,North,360,4.0,12.0,68,0.00,,---,0.00,VWS V14.01,2013-06-02 20:13:00,
2013-06-02 16:18:00,79.5,67.6,29.92,North,360,9.0,12.0,67,0.00,,---,0.00,VWS V14.01,2013-06-02 20:18:00,
2013-06-02 16:23:00,79.8,67.9,29.92,North,360,8.0,12.0,67,0.00,,---,0.00,VWS V14.01,2013-06-02 20:23:00,
2013-06-02 16:29:00,80.1,67.7,29.91,North,360,12.0,14.0,66,0.00,,---,0.00,VWS V14.01,2013-06-02 20:29:00,
2013-06-02 16:34:00,80.0,68.1,29.91,North,360,5.0,14.0,67,0.00,,---,0.00,VWS V14.01,2013-06-02 20:34:00,
2013-06-02 16:39:00,80.1,68.2,29.91,North,360,10.0,14.0,67,0.00,,---,0.00,VWS V14.01,2013-06-02 20:39:00,
2013-06-02 16:44:00,80.0,68.1,29.91,North,360,8.0,14.0,67,0.00,,---,0.00,VWS V14.01,2013-06-02 20:44:00,
2013-06-02 16:49:00,79.9,68.0,29.90,North,360,6.0,14.0,67,0.00,,---,0.00,VWS V14.01,2013-06-02 20:49:00,
2013-06-02 16:54:00,79.8,68.3,29.90,North,360,5.0,14.0,68,0.00,,---,0.00,VWS V14.01,2013-06-02 20:54:00,
2013-06-02 16:59:00,79.9,68.8,29.90,North,360,5.0,14.0,69,0.00,,---,0.00,VWS V14.01,2013-06-02 20:59:00,
2013-06-02 17:04:00,79.8,68.3,29.90,North,360,5.0,7.0,68,0.00,,---,0.00,VWS V14.01,2013-06-02 21:04:00,
2013-06-02 17:09:00,79.5,68.0,29.90,North,360,3.0,7.0,68,0.00,,---,0.00,VWS V14.01,2013-06-02 21:09:00,
2013-06-02 17:14:00,79.6,68.5,29.90,North,360,5.0,7.0,69,0.00,,---,0.00,VWS V14.01,2013-06-02 21:14:00,
2013-06-02 17:19:00,79.6,68.5,29.90,North,360,4.0,7.0,69,0.00,,---,0.00,VWS V14.01,2013-06-02 21:19:00,
2013-06-02 17:24:00,79.5,68.0,29.90,North,360,9.0,9.0,68,0.00,,---,0.00,VWS V14.01,2013-06-02 21:24:00,
2013-06-02 17:29:00,79.5,68.4,29.91,North,360,6.0,9.0,69,0.00,,---,0.00,VWS V14.01,2013-06-02 21:29:00,
2013-06-02 17:34:00,79.4,68.3,29.90,North,360,4.0,9.0,69,0.00,,---,0.00,VWS V14.01,2013-06-02 21:34:00,
2013-06-02 17:39:00,79.2,68.6,29.90,North,360,2.0,9.0,70,0.00,,---,0.00,VWS V14.01,2013-06-02 21:39:00,
2013-06-02 17:44:00,79.0,68.4,29.90,North,360,4.0,9.0,70,0.00,,---,0.00,VWS V14.01,2013-06-02 21:44:00,
2013-06-02 17:49:00,78.9,68.7,29.90,North,360,2.0,9.0,71,0.00,,---,0.00,VWS V14.01,2013-06-02 21:49:00,
2013-06-02 17:54:00,78.8,68.6,29.90,North,360,3.0,9.0,71,0.00,,---,0.00,VWS V14.01,2013-06-02 21:54:00,
2013-06-02 17:59:00,78.9,68.7,29.89,North,360,3.0,9.0,71,0.00,,---,0.00,VWS V14.01,2013-06-02 21:59:00,
2013-06-02 18:04:00,78.8,69.4,29.90,North,360,4.0,6.0,73,0.00,,---,0.00,VWS V14.01,2013-06-02 22:04:00,
2013-06-02 18:10:00,78.4,69.8,29.90,North,360,7.0,12.0,75,0.00,,---,0.00,VWS V14.01,2013-06-02 22:10:00,
2013-06-02 18:15:00,77.3,69.5,29.90,North,360,6.0,12.0,77,0.00,,---,0.00,VWS V14.01,2013-06-02 22:15:00,
2013-06-02 18:20:00,76.5,69.5,29.91,North,360,2.0,12.0,79,0.00,,---,0.00,VWS V14.01,2013-06-02 22:20:00,
2013-06-02 18:25:00,76.0,69.8,29.91,North,360,4.0,12.0,81,0.00,,---,0.00,VWS V14.01,2013-06-02 22:25:00,
2013-06-02 18:30:00,75.7,69.8,29.90,North,360,4.0,12.0,82,0.00,,---,0.00,VWS V14.01,2013-06-02 22:30:00,
2013-06-02 18:35:00,75.2,69.7,29.90,North,360,4.0,12.0,83,0.00,,---,0.00,VWS V14.01,2013-06-02 22:35:00,
2013-06-02 18:40:00,74.9,69.7,29.90,North,360,2.0,12.0,84,0.00,,---,0.00,VWS V14.01,2013-06-02 22:40:00,
2013-06-02 18:45:00,74.7,69.9,29.90,North,360,1.0,12.0,85,0.00,,---,0.00,VWS V14.01,2013-06-02 22:45:00,
2013-06-02 18:50:00,74.5,69.7,29.90,North,360,1.0,12.0,85,0.00,,---,0.00,VWS V14.01,2013-06-02 22:50:00,
2013-06-02 18:55:00,74.4,69.9,29.90,North,360,2.0,12.0,86,0.00,,---,0.00,VWS V14.01,2013-06-02 22:55:00,
2013-06-02 19:00:00,74.3,69.8,29.91,North,360,2.0,12.0,86,0.00,,---,0.00,VWS V14.01,2013-06-02 23:00:00,
2013-06-02 19:05:00,74.0,69.6,29.91,North,360,2.0,5.0,86,0.00,,---,0.00,VWS V14.01,2013-06-02 23:05:00,
2013-06-02 19:10:00,74.0,69.9,29.91,North,360,0.0,5.0,87,0.00,,---,0.00,VWS V14.01,2013-06-02 23:10:00,
2013-06-02 19:15:00,73.9,69.8,29.91,North,360,0.0,5.0,87,0.00,,---,0.00,VWS V14.01,2013-06-02 23:15:00,
2013-06-02 19:21:00,74.0,70.2,29.91,North,360,0.0,5.0,88,0.00,,---,0.00,VWS V14.01,2013-06-02 23:21:00,
2013-06-02 19:26:00,73.9,69.8,29.92,North,360,5.0,8.0,87,0.00,,---,0.00,VWS V14.01,2013-06-02 23:26:00,
2013-06-02 19:31:00,73.7,69.9,29.93,North,360,9.0,11.0,88,0.00,,---,0.00,VWS V14.01,2013-06-02 23:31:00,
2013-06-02 19:36:00,73.4,70.0,29.93,North,360,7.0,11.0,89,0.00,,---,0.00,VWS V14.01,2013-06-02 23:36:00,
2013-06-02 19:41:00,72.8,69.4,29.93,North,360,4.0,13.0,89,0.00,,---,0.00,VWS V14.01,2013-06-02 23:41:00,
2013-06-02 19:46:00,72.4,69.3,29.93,North,360,10.0,13.0,90,0.00,,---,0.00,VWS V14.01,2013-06-02 23:46:00,
2013-06-02 19:51:00,71.9,69.1,29.94,North,360,5.0,14.0,91,0.00,,---,0.00,VWS V14.01,2013-06-02 23:51:00,
2013-06-02 19:56:00,71.5,68.7,29.94,North,360,13.0,15.0,91,0.00,,---,0.00,VWS V14.01,2013-06-02 23:56:00,
2013-06-02 20:01:00,70.9,68.2,29.94,North,360,14.0,17.0,91,0.00,,---,0.00,VWS V14.01,2013-06-03 00:01:00,
2013-06-02 20:06:00,70.5,67.8,29.94,North,360,10.0,12.0,91,0.00,,---,0.00,VWS V14.01,2013-06-03 00:06:00,
2013-06-02 20:11:00,70.2,67.4,29.94,North,360,6.0,15.0,91,0.00,,---,0.00,VWS V14.01,2013-06-03 00:11:00,
2013-06-02 20:16:00,69.9,67.5,29.94,North,360,8.0,15.0,92,0.00,,---,0.00,VWS V14.01,2013-06-03 00:16:00,
2013-06-02 20:21:00,69.7,67.3,29.94,North,360,5.0,15.0,92,0.00,,---,0.00,VWS V14.01,2013-06-03 00:21:00,
2013-06-02 20:26:00,69.3,66.6,29.94,North,360,5.0,15.0,91,0.00,,---,0.00,VWS V14.01,2013-06-03 00:26:00,
2013-06-02 20:31:00,69.2,66.5,29.93,North,360,2.0,15.0,91,0.00,,---,0.00,VWS V14.01,2013-06-03 00:31:00,
2013-06-02 20:36:00,69.0,66.3,29.93,North,360,2.0,15.0,91,0.00,,---,0.00,VWS V14.01,2013-06-03 00:36:00,
2013-06-02 20:42:00,68.9,66.5,29.93,North,360,1.0,15.0,92,0.00,,---,0.00,VWS V14.01,2013-06-03 00:42:00,
2013-06-02 20:47:00,68.7,66.3,29.92,North,360,1.0,15.0,92,0.00,,---,0.00,VWS V14.01,2013-06-03 00:47:00,
2013-06-02 20:52:00,68.6,66.2,29.91,North,360,4.0,15.0,92,0.00,,---,0.00,VWS V14.01,2013-06-03 00:52:00,
2013-06-02 20:57:00,68.4,66.0,29.90,North,360,3.0,15.0,92,0.00,,---,0.00,VWS V14.01,2013-06-03 00:57:00,
2013-06-02 21:02:00,68.3,66.2,29.90,North,360,2.0,15.0,93,0.00,,---,0.00,VWS V14.01,2013-06-03 01:02:00,
2013-06-02 21:07:00,68.1,66.0,29.90,North,360,3.0,4.0,93,0.00,,---,0.00,VWS V14.01,2013-06-03 01:07:00,
2013-06-02 21:12:00,68.1,66.0,29.90,North,360,0.0,4.0,93,0.00,,---,0.00,VWS V14.01,2013-06-03 01:12:00,
2013-06-02 21:17:00,68.0,65.9,29.90,North,360,0.0,4.0,93,0.00,,---,0.00,VWS V14.01,2013-06-03 01:17:00,
2013-06-02 21:22:00,68.0,65.9,29.91,North,360,0.0,4.0,93,0.00,,---,0.00,VWS V14.01,2013-06-03 01:22:00,
2013-06-02 21:27:00,68.1,66.3,29.90,North,360,0.0,4.0,94,0.00,,---,0.00,VWS V14.01,2013-06-03 01:27:00,
2013-06-02 21:33:00,68.2,66.4,29.91,North,360,2.0,4.0,94,0.00,,---,0.00,VWS V14.01,2013-06-03 01:33:00,
2013-06-02 21:37:00,68.3,66.2,29.90,North,360,0.0,5.0,93,0.00,,---,0.00,VWS V14.01,2013-06-03 01:37:00,
2013-06-02 21:43:00,68.1,66.0,29.90,North,360,0.0,5.0,93,0.00,,---,0.00,VWS V14.01,2013-06-03 01:43:00,
2013-06-02 21:48:00,68.1,66.0,29.90,North,360,0.0,5.0,93,0.00,,---,0.00,VWS V14.01,2013-06-03 01:48:00,
2013-06-02 21:53:00,68.0,66.2,29.90,North,360,0.0,5.0,94,0.00,,---,0.00,VWS V14.01,2013-06-03 01:53:00,
2013-06-02 21:58:00,68.0,66.2,29.91,North,360,0.0,5.0,94,0.00,,---,0.00,VWS V14.01,2013-06-03 01:58:00,
2013-06-02 22:03:00,68.1,66.3,29.91,North,360,0.0,0.0,94,0.00,,---,0.00,VWS V14.01,2013-06-03 02:03:00,
2013-06-02 22:08:00,68.0,66.2,29.91,North,360,0.0,0.0,94,0.00,,---,0.00,VWS V14.01,2013-06-03 02:08:00,
2013-06-02 22:13:00,68.1,66.3,29.92,North,360,3.0,4.0,94,0.00,,---,0.00,VWS V14.01,2013-06-03 02:13:00,
2013-06-02 22:18:00,68.1,66.3,29.93,North,360,2.0,5.0,94,0.00,,---,0.00,VWS V14.01,2013-06-03 02:18:00,
2013-06-02 22:23:00,68.1,66.6,29.93,North,360,6.0,6.0,95,0.00,,---,0.00,VWS V14.01,2013-06-03 02:23:00,
2013-06-02 22:28:00,68.0,66.5,29.93,North,360,5.0,6.0,95,0.00,,---,0.00,VWS V14.01,2013-06-03 02:28:00,
2013-06-02 22:33:00,68.0,66.5,29.93,North,360,3.0,6.0,95,0.00,,---,0.00,VWS V14.01,2013-06-03 02:33:00,
2013-06-02 22:38:00,68.1,66.6,29.93,North,360,0.0,6.0,95,0.00,,---,0.00,VWS V14.01,2013-06-03 02:38:00,
2013-06-02 22:43:00,68.1,66.6,29.93,North,360,5.0,6.0,95,0.00,,---,0.00,VWS V14.01,2013-06-03 02:43:00,
2013-06-02 22:48:00,68.1,66.6,29.93,North,360,5.0,6.0,95,0.00,,---,0.00,VWS V14.01,2013-06-03 02:48:00,
2013-06-02 22:53:00,68.0,66.5,29.93,North,360,5.0,6.0,95,0.00,,---,0.00,VWS V14.01,2013-06-03 02:53:00,
2013-06-02 22:58:00,68.1,66.6,29.93,North,360,2.0,6.0,95,0.00,,---,0.00,VWS V14.01,2013-06-03 02:58:00,
2013-06-02 23:03:00,68.1,66.6,29.93,North,360,2.0,3.0,95,0.00,,---,0.00,VWS V14.01,2013-06-03 03:03:00,
2013-06-02 23:08:00,68.3,67.1,29.93,North,360,4.0,6.0,96,0.00,,---,0.00,VWS V14.01,2013-06-03 03:08:00,
2013-06-02 23:14:00,68.3,67.1,29.93,North,360,5.0,6.0,96,0.00,,---,0.00,VWS V14.01,2013-06-03 03:14:00,
2013-06-02 23:19:00,68.3,67.1,29.93,North,360,3.0,6.0,96,0.00,,---,0.00,VWS V14.01,2013-06-03 03:19:00,
2013-06-02 23:24:00,68.4,67.2,29.93,North,360,5.0,6.0,96,0.01,,---,0.01,VWS V14.01,2013-06-03 03:24:00,
2013-06-02 23:29:00,68.3,67.1,29.93,North,360,0.0,6.0,96,0.02,,---,0.02,VWS V14.01,2013-06-03 03:29:00,
2013-06-02 23:34:00,68.3,67.1,29.93,North,360,2.0,6.0,96,0.02,,---,0.02,VWS V14.01,2013-06-03 03:34:00,
2013-06-02 23:39:00,68.3,67.1,29.93,North,360,3.0,6.0,96,0.03,,---,0.03,VWS V14.01,2013-06-03 03:39:00,
2013-06-02 23:44:00,68.3,67.1,29.93,North,360,0.0,6.0,96,0.04,,---,0.04,VWS V14.01,2013-06-03 03:44:00,
2013-06-02 23:49:00,68.3,67.1,29.93,North,360,2.0,6.0,96,0.04,,---,0.04,VWS V14.01,2013-06-03 03:49:00,
2013-06-02 23:54:00,68.3,67.1,29.93,North,360,3.0,6.0,96,0.04,,---,0.04,VWS V14.01,2013-06-03 03:54:00,
2013-06-02 23:59:00,68.3,67.1,29.92,North,360,1.0,6.0,96,0.05,,---,0.05,VWS V14.01,2013-06-03 03:59:00,